Weather History for Buena Vista, CO

Change the Weather History Date:

Thursday, May 23, 2013

  Actual Average (KLXV) Record (KLXV)
Temperature  
Mean Temperature 57 °F -  
Max Temperature 75 °F 57 °F 71 °F (2000)
Min Temperature 39 °F 29 °F 21 °F (1988)
Degree Days  
Heating Degree Days 8 22  
Month to date heating degree days 585  
Since 1 July heating degree days 10586  
Cooling Degree Days 0 0  
Month to date cooling degree days 0  
Year to date cooling degree days 0  
Growing Degree Days 7 (Base 50)    
Moisture  
Dew Point 32 °F    
Average Humidity 49    
Maximum Humidity 84    
Minimum Humidity 9    
Precipitation  
Precipitation 0.00 in 0.03 in 0.23 in (1985)
Month to date precipitation 0.61  
Year to date precipitation 3.94  
Sea Level Pressure  
Sea Level Pressure 30.14 in    
Wind  
Wind Speed 6 mph (SE)    
Max Wind Speed 21 mph    
Max Gust Speed 33 mph    
Visibility 10 miles    
Events      
T = Trace of Precipitation, MM = Missing Value Source: NWS Daily Summary

Daily Weather History Graph

Daily Weather History Graph

Search for Another Location

Airport:

Trip Planner

Search our weather history database for the weather conditions in past years. The results will help you decide how hot, cold, wet, or windy it might be!

Date:

Astronomy

May. 23, 2013 Rise Set
Actual Time 5:45 AM MDT 8:17 PM MDT
Civil Twilight 5:15 AM MDT 8:47 PM MDT
Nautical Twilight 4:37 AM MDT 9:26 PM MDT
Astronomical Twilight 3:54 AM MDT 10:08 PM MDT
Moon 6:53 PM MDT (5/23) 4:31 AM MDT (5/23)
Length of Visible Light 15h 32m
Length of Day
14h 31m
Waxing Gibbous, 97% of the Moon is Illuminated
May 23
Waxing Gibbous
May 24
Full
May 31
Last Quarter
Jun 8
New
Jun 16
First Quarter

Hourly Weather History & Observations

Time (MDT) Temp. Windchill Dew Point Humidity Pressure Visibility Wind Dir Wind Speed Gust Speed Precip Events Conditions
12:15 AM 47.1 °F - 32.5 °F 57% 30.15 in 10.0 mi Calm Calm - N/A   Clear
12:35 AM 45.1 °F 43.7 °F 32.2 °F 60% 30.15 in 10.0 mi SW 3.5 mph - N/A   Clear
12:55 AM 44.6 °F - 32.4 °F 62% 30.15 in 10.0 mi Calm Calm - N/A   Clear
1:15 AM 44.1 °F 41.5 °F 32.0 °F 63% 30.15 in 10.0 mi West 4.6 mph - N/A   Clear
1:35 AM 45.0 °F 42.6 °F 33.1 °F 63% 30.16 in 10.0 mi ENE 4.6 mph - N/A   Clear
1:55 AM 45.3 °F - 33.4 °F 63% 30.16 in 10.0 mi Calm Calm - N/A   Clear
2:15 AM 42.6 °F - 32.9 °F 68% 30.17 in 10.0 mi Calm Calm - N/A   Clear
2:35 AM 39.7 °F 37.6 °F 32.7 °F 76% 30.17 in 10.0 mi WSW 3.5 mph - N/A   Clear
2:55 AM 39.7 °F - 32.5 °F 75% 30.17 in 10.0 mi Calm Calm - N/A   Scattered Clouds
3:15 AM 43.0 °F - 34.2 °F 71% 30.18 in 10.0 mi Calm Calm - N/A   Mostly Cloudy
3:35 AM 49.1 °F - 36.7 °F 62% 30.18 in 10.0 mi East 6.9 mph - N/A   Overcast
3:55 AM 49.1 °F - 36.9 °F 63% 30.18 in 10.0 mi East 3.5 mph - N/A   Overcast
4:15 AM 47.8 °F - 36.0 °F 63% 30.18 in 10.0 mi SW 3.5 mph - N/A   Overcast
4:35 AM 47.5 °F - 36.5 °F 66% 30.19 in 10.0 mi Calm Calm - N/A   Overcast
4:55 AM 48.2 °F - 37.0 °F 65% 30.19 in 10.0 mi SE 4.6 mph - N/A   Overcast
5:15 AM 48.2 °F - 36.9 °F 65% 30.19 in 10.0 mi SSE 3.5 mph - N/A   Overcast
5:35 AM 48.2 °F - 37.4 °F 66% 30.19 in 10.0 mi ESE 6.9 mph - N/A   Overcast
5:55 AM 47.8 °F - 37.8 °F 68% 30.20 in 10.0 mi ESE 6.9 mph - N/A   Overcast
6:15 AM 47.5 °F - 38.3 °F 70% 30.20 in 10.0 mi ESE 5.8 mph - N/A   Overcast
6:35 AM 47.7 °F - 38.3 °F 70% 30.20 in 10.0 mi ESE 4.6 mph - N/A   Overcast
6:55 AM 47.5 °F - 38.3 °F 70% 30.20 in 10.0 mi ESE 6.9 mph - N/A   Overcast
7:15 AM 47.8 °F - 38.7 °F 70% 30.20 in 10.0 mi SE 10.4 mph - N/A   Overcast
7:35 AM 47.7 °F - 38.5 °F 70% 30.21 in 10.0 mi SE 9.2 mph - N/A   Overcast
7:55 AM 50.4 °F - 38.1 °F 63% 30.21 in 10.0 mi SSE 12.7 mph - N/A   Mostly Cloudy
8:15 AM 48.9 °F - 37.8 °F 65% 30.21 in 10.0 mi SE 9.2 mph - N/A   Scattered Clouds
8:35 AM 49.8 °F - 37.4 °F 62% 30.21 in 10.0 mi SSE 4.6 mph - N/A   Mostly Cloudy
8:55 AM 49.5 °F - 36.9 °F 62% 30.21 in 10.0 mi SSE 5.8 mph - N/A   Overcast
9:15 AM 50.9 °F - 37.4 °F 60% 30.21 in 10.0 mi ESE 5.8 mph - N/A   Overcast
9:35 AM 52.7 °F - 36.5 °F 54% 30.20 in 10.0 mi SSW 4.6 mph - N/A   Overcast
9:55 AM 52.7 °F - 36.3 °F 54% 30.19 in 10.0 mi North 3.5 mph - N/A   Mostly Cloudy
10:15 AM 54.5 °F - 36.0 °F 50% 30.18 in 10.0 mi Calm Calm - N/A   Scattered Clouds
10:35 AM 55.6 °F - 35.6 °F 47% 30.18 in 10.0 mi Calm Calm - N/A   Clear
10:55 AM 57.7 °F - 36.5 °F 45% 30.17 in 10.0 mi Calm Calm - N/A   Clear
11:15 AM 59.2 °F - 36.0 °F 42% 30.16 in 10.0 mi ESE 5.8 mph - N/A   Clear
11:35 AM 61.0 °F - 34.0 °F 36% 30.15 in 10.0 mi Calm Calm - N/A   Clear
11:55 AM 63.1 °F - 32.2 °F 31% 30.15 in 10.0 mi SSE 8.1 mph - N/A   Clear
12:15 PM 65.3 °F - 31.6 °F 28% 30.13 in 10.0 mi SE 11.5 mph 16.1 mph N/A   Clear
12:35 PM 66.6 °F - 31.1 °F 27% 30.12 in 10.0 mi ESE 15.0 mph 21.9 mph N/A   Scattered Clouds
12:55 PM 67.8 °F - 30.6 °F 25% 30.11 in 10.0 mi SSE 11.5 mph 21.9 mph N/A   Scattered Clouds
1:15 PM 70.5 °F - 27.9 °F 20% 30.09 in 10.0 mi SE 11.5 mph 26.5 mph N/A   Clear
1:35 PM 71.4 °F - 25.3 °F 18% 30.07 in 10.0 mi SE 20.7 mph 26.5 mph N/A   Clear
1:55 PM 71.8 °F - 25.7 °F 18% 30.07 in 10.0 mi SSE 10.4 mph 23.0 mph N/A   Scattered Clouds
2:15 PM 73.2 °F - 21.6 °F 14% 30.07 in 10.0 mi SE 15.0 mph 27.6 mph N/A   Scattered Clouds
2:35 PM 73.9 °F - 20.5 °F 13% 30.06 in 10.0 mi SE 16.1 mph 27.6 mph N/A   Clear
2:55 PM 73.4 °F - 14.0 °F 10% 30.05 in 10.0 mi SSW 15.0 mph 29.9 mph N/A   Scattered Clouds
3:15 PM 75.2 °F - 12.4 °F 9% 30.04 in 10.0 mi South 12.7 mph 21.9 mph N/A   Scattered Clouds
3:35 PM 75.0 °F - 12.4 °F 9% 30.04 in 10.0 mi SSW 20.7 mph 32.2 mph N/A   Scattered Clouds
3:55 PM 74.3 °F - 10.8 °F 9% 30.04 in 10.0 mi South 8.1 mph 33.4 mph N/A   Clear
4:15 PM 75.6 °F - 12.4 °F 9% 30.03 in 10.0 mi South 13.8 mph 32.2 mph N/A   Clear
4:35 PM 74.7 °F - 11.8 °F 9% 30.04 in 10.0 mi SW 18.4 mph 29.9 mph N/A   Clear
4:55 PM 73.4 °F - 11.8 °F 9% 30.03 in 10.0 mi South 19.6 mph 26.5 mph N/A   Clear
5:15 PM 73.0 °F - 12.4 °F 10% 30.04 in 10.0 mi SSW 12.7 mph 19.6 mph N/A   Clear
5:35 PM 70.7 °F - 19.6 °F 14% 30.04 in 10.0 mi South 12.7 mph 18.4 mph N/A   Clear
5:55 PM 71.8 °F - 22.8 °F 16% 30.04 in 10.0 mi SE 18.4 mph 23.0 mph N/A   Clear
6:15 PM 66.9 °F - 29.5 °F 25% 30.04 in 10.0 mi South 17.3 mph 25.3 mph N/A   Clear
6:35 PM 62.8 °F - 33.3 °F 33% 30.05 in 10.0 mi South 15.0 mph 21.9 mph N/A   Clear
6:55 PM 62.8 °F - 34.2 °F 34% 30.05 in 10.0 mi SSE 17.3 mph 24.2 mph N/A   Clear
7:15 PM 59.7 °F - 37.0 °F 43% 30.07 in 10.0 mi South 17.3 mph 21.9 mph N/A   Clear
7:35 PM 57.9 °F - 38.5 °F 48% 30.08 in 10.0 mi SE 11.5 mph - N/A   Clear
7:55 PM 55.6 °F - 39.4 °F 55% 30.09 in 10.0 mi SE 10.4 mph - N/A   Clear
8:15 PM 55.0 °F - 38.8 °F 54% 30.11 in 10.0 mi SE 15.0 mph 18.4 mph N/A   Clear
8:35 PM 52.5 °F - 40.3 °F 63% 30.13 in 10.0 mi East 11.5 mph - N/A   Clear
8:55 PM 51.4 °F - 40.8 °F 67% 30.14 in 10.0 mi SE 13.8 mph - N/A   Clear
9:15 PM 50.2 °F - 41.0 °F 71% 30.15 in 10.0 mi ESE 8.1 mph - N/A   Clear
9:35 PM 49.5 °F - 41.2 °F 73% 30.15 in 10.0 mi SE 8.1 mph - N/A   Clear
10:15 PM 47.7 °F - 41.0 °F 78% 30.18 in 10.0 mi SE 5.8 mph - N/A   Clear
10:35 PM 48.2 °F - 41.2 °F 77% 30.18 in 10.0 mi SE 6.9 mph - N/A   Clear
10:55 PM 46.9 °F - 41.0 °F 80% 30.19 in 10.0 mi East 3.5 mph - N/A   Clear
11:15 PM 46.4 °F 45.2 °F 41.0 °F 81% 30.19 in 10.0 mi East 3.5 mph - N/A   Clear
11:35 PM 45.9 °F 43.6 °F 40.8 °F 83% 30.18 in 10.0 mi ENE 4.6 mph - N/A   Clear
11:55 PM 45.1 °F 42.8 °F 40.5 °F 84% 30.18 in 10.0 mi East 4.6 mph - N/A   Scattered Clouds